[[[{"header":{"parameterUnit":"kt","parameterCategory":2,"dx":1,"dy":1,"la1":30.253999710083008,"la2":30.299108505249023,"lo1":-89.0895004272461,"lo2":-89.04439544677734,"nx":28,"ny":28,"refTime":"2022-09-21T09:00:00:Z","depth":0,"parameterNumber":1,"parameterNumberName":"U-component_of_WINDS"},"data":[3.7945,3.8131,3.8212,3.8461,3.8576,3.876,3.8852,3.8979,3.9102,3.9331,3.9478,3.958,3.9735,3.9931,4.0095,4.0137,4.0199,4.0205,4.0252,4.0154,4.0145,4.0137,4.0097,4.0218,4.0218,4.0342,4.0343,4.0344,3.7861,3.7976,3.8132,3.8338,3.8473,3.8516,3.8683,3.8793,3.8957,3.911,3.926,3.947,3.9647,3.9805,3.9989,4.0078,4.0108,4.0121,4.0114,4.0138,4.0036,3.9992,4.0093,4.0093,4.0093,4.0093,4.0093,4.0093,3.7729,3.7838,3.8009,3.8181,3.8307,3.8445,3.8563,3.8686,3.8841,3.9042,3.9111,3.93,3.9469,3.9734,3.9843,3.9992,3.9993,4.0033,4.0043,4.005,4.0045,3.9849,4.0029,4.0029,4.0029,4.0029,4.0029,0,3.7656,3.7716,3.7873,3.8053,3.8183,3.8331,3.8481,3.8557,3.8715,3.8837,3.902,3.914,3.9377,3.9559,3.9751,3.9859,3.9916,3.9933,3.996,3.9926,3.987,3.9898,3.9724,3.9926,3.9926,3.9925,3.9925,3.9925,3.7525,3.7644,3.7865,3.7964,3.8067,3.8225,3.8336,3.8468,3.858,3.8785,3.8876,3.9061,3.9215,3.9497,3.9641,3.982,3.9849,3.9916,3.9876,3.9838,3.9846,3.9835,3.9847,3.9919,3.992,3.9921,3.9921,0,3.7442,3.7576,3.7788,3.7997,3.8053,3.8171,3.835,3.8466,3.8574,3.8748,3.8796,3.8966,3.9145,3.928,3.9513,3.9578,3.9773,3.98,3.9714,3.9725,3.9796,3.9786,4.0012,4.0047,3.9927,3.9928,3.9929,0,3.7381,3.7534,3.7724,3.7841,3.8014,3.8142,3.8311,3.842,3.857,3.8709,3.8796,3.8924,3.9078,3.9226,3.9323,3.9507,3.9553,3.9612,3.9635,3.9602,3.9594,3.9662,3.9654,3.9688,3.9687,3.9686,3.9685,0,3.7235,3.7519,3.7708,3.7795,3.8033,3.812,3.8223,3.8393,3.8501,3.8665,3.8737,3.8919,3.9018,3.9157,3.9278,3.9245,3.9509,3.9489,3.9569,3.9566,3.9618,3.9612,3.9781,3.9683,3.9683,3.9682,3.9682,0,3.7206,3.7368,3.7624,3.7824,3.7894,3.802,3.8206,3.8346,3.8518,3.8587,3.8717,3.8791,3.8967,3.8936,3.9179,3.9101,3.9194,3.9268,3.9277,3.9298,3.9259,3.9331,3.9482,3.9501,3.932,3.9317,3.9314,0,3.6999,3.7295,3.7407,3.7649,3.7804,3.789,3.8033,3.8184,3.8287,3.8434,3.855,3.8717,3.8724,3.8795,3.8898,3.9023,3.9124,3.9014,3.9222,3.9228,3.9168,3.931,3.9296,3.9434,3.9278,3.9282,3.9284,0,3.6855,3.7145,3.7181,3.7284,3.7504,3.7636,3.7801,3.7995,3.8085,3.8248,3.8388,3.863,3.8643,3.8761,3.8841,3.8941,3.906,3.8943,3.8949,3.8956,3.9272,3.9258,3.928,3.9092,3.9096,3.91,3.9255,0,3.6773,3.694,3.7043,3.7269,3.7393,3.7553,3.7696,3.7807,3.7871,3.7976,3.8188,3.835,3.855,3.8614,3.8679,3.8865,3.8854,3.8868,3.8846,3.8939,3.8994,3.9016,3.8753,3.8754,3.8754,3.8754,0,0,3.6539,3.6782,3.6901,3.7066,3.7177,3.7264,3.7423,3.7542,3.778,3.7855,3.7845,3.8207,3.834,3.8582,3.8622,3.8705,3.875,3.8713,3.8895,3.891,3.8925,3.898,3.9001,3.8754,3.8754,3.8755,3.8755,0,3.6538,3.6671,3.6827,3.6955,3.7149,3.7254,3.7291,3.7499,3.7574,3.7784,3.7854,3.7999,3.8287,3.8417,3.8521,3.8688,3.8732,3.8739,3.8779,3.8892,3.8907,3.892,3.8977,3.8996,3.8755,3.8755,3.8755,0,3.6419,3.6572,3.6663,3.6922,3.705,3.7209,3.7221,3.739,3.7509,3.7599,3.7805,3.7915,3.8102,3.8314,3.8415,3.8408,3.8707,3.8641,3.8643,3.8657,3.8774,3.8791,3.8807,3.8599,3.8598,3.8597,0,0,3.6398,3.6555,3.676,3.6932,3.7008,3.7167,3.7267,3.7341,3.7506,3.7572,3.7714,3.7874,3.8043,3.8151,3.8318,3.8531,3.8579,3.8615,3.8623,3.8628,3.8644,3.8762,3.878,3.8592,3.8592,3.8592,0,0,3.6388,3.6633,3.6667,3.6885,3.7039,3.7254,3.7353,3.7401,3.7565,3.7563,3.7698,3.7746,3.7947,3.8054,3.7978,3.8312,3.8288,3.831,3.8235,3.8246,3.8254,3.8223,3.8013,0,0,0,0,0,3.646,3.6602,3.6631,3.6689,3.7018,3.7237,3.728,3.7393,3.7373,3.7449,3.7575,3.7617,3.804,3.7976,3.8032,3.8114,3.8536,3.8546,3.8556,3.851,3.8521,3.8529,0,0,0,0,0,0,3.6483,3.6554,3.6628,3.6846,3.6921,3.7233,3.7223,3.7258,3.7367,3.7372,3.7591,3.7624,3.7726,3.7955,3.8004,3.808,3.7997,3.854,3.8549,3.8556,3.8514,3.8522,3.8529,0,0,0,0,0,3.6503,3.6559,3.7057,3.6845,3.691,3.7095,3.7218,3.7248,3.7335,3.7531,3.7565,3.741,3.7725,3.7774,3.7985,3.8055,3.7964,3.7982,3.8546,3.8552,3.8558,3.8518,0,0,0,0,0,0,3.6517,3.6588,3.7072,3.7096,3.68,3.708,3.7127,3.7238,3.7489,3.7524,3.7356,3.7356,3.7726,3.7764,3.7801,3.8039,3.7938,3.7956,3.7967,3.8551,3.8556,3.8561,0,0,0,0,0,0,3.6559,3.6608,3.7085,3.7021,3.7039,3.7065,3.7108,3.7305,3.7491,3.73,3.7308,3.7353,3.7671,3.7757,3.7787,3.809,3.7917,3.7934,3.7946,3.7954,3.8555,3.8559,0,0,0,0,0,0,3.6581,3.6624,3.7016,3.7029,3.7045,3.7324,3.7242,3.7572,3.7434,3.7288,3.7425,3.7421,3.7663,3.7695,3.7776,3.8067,3.8084,3.7918,3.7929,3.7938,3.7943,0,0,0,0,0,0,0,3.66,3.6288,3.6929,3.7036,3.705,3.7319,3.7326,3.7332,3.7433,3.743,3.7426,3.7423,3.7818,3.7837,3.7857,3.8048,0,0,3.7916,3.7924,0,0,0,0,0,0,0,0,3.6273,3.6284,3.693,3.6935,3.694,3.732,3.7326,3.7331,3.7433,3.743,3.7427,3.7424,3.7824,3.7839,3.7854,0,0,0,0,0,0,0,0,0,0,0,0,0,0,0,3.693,3.6934,0,3.7321,3.7325,3.733,3.7432,3.743,3.7427,3.7425,3.7828,3.784,3.7853,0,0,0,0,0,0,0,0,0,0,0,0,0,0,0,0,0,0,0,0,0,0,0,0,0,0,0,0,0,0,0,0,0,0,0,0,0,0,0,0,0,0,0,0,0,0,0,0,0,0,0,0,0,0,0,0,0,0,0,0,0,0,0,0,0,0,0,0,0]}],[{"header":{"parameterUnit":"kt","parameterCategory":2,"dx":1,"dy":1,"la1":30.253999710083008,"la2":30.299108505249023,"lo1":-89.0895004272461,"lo2":-89.04439544677734,"nx":28,"ny":28,"refTime":"2022-09-21T09:00:00:Z","depth":0,"parameterNumber":2,"parameterNumberName":"V-component_of_WINDS"},"data":[6.0916,6.0917,6.0882,6.0866,6.0831,6.0813,6.0795,6.0767,6.0736,6.0708,6.0685,6.0648,6.06,6.0562,6.0534,6.0517,6.0506,6.0532,6.0507,6.0427,6.0413,6.04,6.0397,6.0531,6.0531,6.0594,6.0595,6.0595,6.0857,6.0824,6.0806,6.0764,6.0748,6.0701,6.0663,6.0652,6.0636,6.0598,6.0574,6.0546,6.0518,6.046,6.0427,6.0423,6.0398,6.0416,6.0414,6.0407,6.032,6.0318,6.0437,6.0437,6.0437,6.0437,6.0437,6.0437,6.0741,6.0743,6.0697,6.0677,6.0646,6.0618,6.0613,6.0569,6.0549,6.0512,6.0473,6.0454,6.0406,6.0348,6.0319,6.0301,6.0274,6.0282,6.0283,6.0285,6.0292,6.02,6.0294,6.0294,6.0293,6.0293,6.0293,0,6.0643,6.0614,6.0594,6.0564,6.0547,6.052,6.0489,6.0485,6.0408,6.0395,6.0372,6.0353,6.0313,6.0286,6.0247,6.0214,6.0161,6.0153,6.0157,6.0175,6.0195,6.018,6.0038,6.015,6.0149,6.0148,6.0147,6.0146,6.052,6.0528,6.0463,6.0454,6.0428,6.0415,6.0399,6.0331,6.0317,6.0267,6.0271,6.0244,6.0219,6.0187,6.0132,6.0102,6.0075,6.0121,6.007,6.0086,6.0071,6.007,6.0069,6.0132,6.0133,6.0135,6.0136,0,6.0453,6.0395,6.0396,6.033,6.0314,6.0325,6.0268,6.0267,6.0223,6.0215,6.0209,6.014,6.0118,6.0055,6.0018,5.9985,5.9997,5.9974,6.0011,6.0002,6.0034,6.0031,6.0157,6.0168,6.0032,6.0034,6.0035,0,6.0323,6.0336,6.0248,6.0252,6.0264,6.0195,6.0208,6.0171,6.0131,6.0124,6.0056,6.0051,5.9972,5.9957,5.9908,5.9908,5.9902,5.9875,5.9861,5.9879,5.9882,5.9868,5.986,5.9835,5.9835,5.9834,5.9834,0,6.0221,6.0191,6.0198,6.0181,6.0112,6.0116,6.0087,6.0042,6.0027,5.9998,5.9986,5.9957,5.9941,5.9918,5.9856,5.9823,5.9855,5.9797,5.9827,5.9829,5.9835,5.9835,5.9965,5.9833,5.9833,5.9833,5.9832,0,6.0106,6.008,6.0099,6.0038,6.0033,6.0038,6.0004,5.9994,5.9951,5.9921,5.9897,5.9843,5.9841,5.9787,5.978,5.9755,5.9741,5.9716,5.9717,5.971,5.9651,5.9729,5.9862,5.9872,5.9707,5.9706,5.9705,0,6.0003,6.0008,5.9948,5.9968,5.9961,5.9883,5.9887,5.9851,5.9812,5.9799,5.9754,5.974,5.9688,5.9674,5.968,5.9632,5.9666,5.9627,5.9603,5.9603,5.9613,5.9736,5.977,5.9841,5.9691,5.9693,5.9694,0,5.9916,5.9833,5.9841,5.9818,5.9762,5.9756,5.9761,5.9732,5.9726,5.9695,5.9695,5.9676,5.9633,5.9613,5.9566,5.9575,5.9641,5.9529,5.9526,5.9548,5.968,5.9712,5.9724,5.9607,5.9609,5.961,5.9683,0,5.9748,5.9744,5.9764,5.9718,5.9704,5.9715,5.9648,5.9642,5.9598,5.9556,5.9557,5.9513,5.9482,5.9482,5.9439,5.9482,5.9464,5.942,5.9361,5.9444,5.9465,5.9475,5.9334,5.9331,5.933,5.9328,0,0,5.9662,5.9654,5.9589,5.9592,5.9575,5.9495,5.9511,5.9486,5.9438,5.9427,5.9395,5.9361,5.9326,5.9334,5.9354,5.9344,5.9344,5.9319,5.9406,5.9415,5.9423,5.9447,5.9458,5.9325,5.9324,5.9324,5.9323,0,5.9586,5.9555,5.9573,5.9544,5.9499,5.9454,5.9459,5.94,5.9374,5.9376,5.9308,5.9301,5.9278,5.9248,5.923,5.9317,5.9264,5.9313,5.9381,5.939,5.9402,5.9411,5.9438,5.9449,5.9319,5.9319,5.9319,0,5.9485,5.9442,5.9445,5.9407,5.9376,5.9372,5.9294,5.9294,5.9289,5.92,5.9203,5.917,5.9126,5.9144,5.915,5.9119,5.9195,5.9161,5.9171,5.9169,5.9175,5.9189,5.9201,5.9039,5.9038,5.9037,0,0,5.9428,5.9425,5.9357,5.9385,5.9371,5.9305,5.9296,5.9251,5.9214,5.92,5.9156,5.9121,5.9106,5.9098,5.908,5.9111,5.9094,5.913,5.9143,5.9154,5.9158,5.9167,5.9181,5.9035,5.9035,5.9035,0,0,5.94,5.9323,5.9285,5.931,5.9278,5.9212,5.9232,5.9183,5.9161,5.9153,5.9076,5.9064,5.908,5.905,5.9022,5.9057,5.9001,5.9006,5.9076,5.9092,5.9105,5.911,5.8934,0,0,0,0,0,5.9288,5.9332,5.9299,5.9293,5.9245,5.9231,5.9224,5.9162,5.9122,5.9139,5.9094,5.9039,5.9018,5.8991,5.8987,5.9018,5.9,5.9006,5.9012,5.9109,5.9126,5.9141,0,0,0,0,0,0,5.9285,5.9279,5.9297,5.9235,5.9223,5.9229,5.9147,5.9132,5.9119,5.9109,5.905,5.9038,5.8984,5.899,5.8986,5.9017,5.8935,5.9003,5.9008,5.9012,5.9115,5.9129,5.9141,0,0,0,0,0,5.9283,5.9278,5.9216,5.9234,5.9224,5.9152,5.9145,5.9131,5.912,5.9051,5.9037,5.9075,5.8987,5.898,5.8987,5.902,5.8937,5.8936,5.9006,5.901,5.9014,5.9122,0,0,0,0,0,0,5.9281,5.9264,5.9213,5.9208,5.9212,5.915,5.9138,5.9132,5.9062,5.9049,5.9072,5.9064,5.8989,5.8983,5.8978,5.9025,5.8939,5.8937,5.8937,5.9009,5.9012,5.9015,0,0,0,0,0,0,5.9267,5.9261,5.921,5.9187,5.9178,5.9149,5.9138,5.9137,5.9062,5.9087,5.9078,5.9069,5.8997,5.8986,5.8982,5.8981,5.894,5.8939,5.8938,5.8938,5.9012,5.9014,0,0,0,0,0,0,5.9263,5.9258,5.9188,5.9181,5.9173,5.9108,5.9146,5.9099,5.9044,5.9091,5.9037,5.9034,5.9001,5.8995,5.8985,5.8987,5.8983,5.894,5.8939,5.8938,5.8938,0,0,0,0,0,0,0,5.926,5.9312,5.9245,5.9177,5.917,5.9157,5.9156,5.9154,5.9043,5.904,5.9037,5.9035,5.8945,5.8944,5.8943,5.8991,0,0,5.894,5.8939,0,0,0,0,0,0,0,0,5.9313,5.9312,5.9245,5.9244,5.9243,5.9157,5.9156,5.9155,5.9042,5.904,5.9038,5.9036,5.8945,5.8944,5.8943,0,0,0,0,0,0,0,0,0,0,0,0,0,0,0,5.9245,5.9244,0,5.9157,5.9156,5.9155,5.9042,5.904,5.9038,5.9037,5.8945,5.8944,5.8943,0,0,0,0,0,0,0,0,0,0,0,0,0,0,0,0,0,0,0,0,0,0,0,0,0,0,0,0,0,0,0,0,0,0,0,0,0,0,0,0,0,0,0,0,0,0,0,0,0,0,0,0,0,0,0,0,0,0,0,0,0,0,0,0,0,0,0,0,0]}]]]